Location: Elstree
(51.6403°N, 0.2969°W)
Time: 21:29:11
(UTC+00:00)

Cosmos 990 Rocket - Pass Details

Date: 03 March 2021
Orbit: 746 x 769 km, 74.0° (Epoch: 15 April)

Event Time Altitude Azimuth Distance (km) Brightness Sun altitude
Rises 20:27:02 0° 336° (NNW) 3,211 7.9 -25.4°
Reaches altitude 10° 20:29:25 10° 339° (NNW) 2,285 7.0 -25.7°
Enters shadow 20:34:00 60° 26° (NNE) 865 4.1 -26.4°
